EJU12ZF LEBL-LIRN

Flight info

Callsign EJU12ZF
Flight time 1h 23m
Altitude 36000
Route DIPES N725 OSPOK DCT NOLVI/N0429F370 DCT ORKUM/N0431F380 DCT ELSAG DCT ALG DCT POKAV DCT ROTUN DCT PNZ
Aircraft A319/M-SDE2E3FGIJ1RWXYZ/LB1

Departure

Time 2026-04-30 19:41
Airport Josep Tarradellas Barcelona-El Prat Airport (LEBL)

Arrival

Time 2026-04-30 21:05
Airport Naples International Airport (LIRN)
Time Latitude Longitude Altitude Speed Heading
2026-04-30 19:00 41.30405 2.08450 20 ft 0 kts 245°
2026-04-30 19:00 41.30405 2.08451 20 ft 0 kts 245°
2026-04-30 19:16 41.30405 2.08452 20 ft 0 kts 245°
2026-04-30 19:26 41.30417 2.08484 23 ft 4 kts 238°
2026-04-30 19:26 41.30454 2.08523 23 ft 4 kts 160°
2026-04-30 19:26 41.30462 2.08519 23 ft 0 kts 153°
2026-04-30 19:30 41.30397 2.08558 19 ft 9 kts 156°
2026-04-30 19:31 41.30270 2.08550 17 ft 12 kts 242°
2026-04-30 19:31 41.30235 2.08448 18 ft 12 kts 245°
2026-04-30 19:31 41.30162 2.08245 19 ft 13 kts 235°
2026-04-30 19:32 41.30089 2.08237 20 ft 11 kts 155°
2026-04-30 19:32 41.30019 2.08278 17 ft 9 kts 156°
2026-04-30 19:32 41.29998 2.08290 18 ft 0 kts 156°
2026-04-30 19:33 41.29994 2.08292 18 ft 4 kts 156°
2026-04-30 19:33 41.29926 2.08333 21 ft 12 kts 155°
2026-04-30 19:33 41.29863 2.08372 25 ft 10 kts 155°
2026-04-30 19:34 41.29770 2.08428 16 ft 18 kts 155°
2026-04-30 19:34 41.29723 2.08422 16 ft 6 kts 222°
2026-04-30 19:34 41.29662 2.08266 18 ft 10 kts 242°
2026-04-30 19:35 41.29598 2.08242 15 ft 11 kts 159°
2026-04-30 19:35 41.29527 2.08284 16 ft 11 kts 156°
2026-04-30 19:35 41.29460 2.08323 17 ft 10 kts 156°
2026-04-30 19:35 41.29397 2.08359 20 ft 9 kts 156°
2026-04-30 19:36 41.29339 2.08394 19 ft 9 kts 155°
2026-04-30 19:36 41.29283 2.08429 20 ft 9 kts 155°
2026-04-30 19:36 41.29164 2.08431 19 ft 10 kts 200°
2026-04-30 19:37 41.29095 2.08398 19 ft 11 kts 199°
2026-04-30 19:37 41.29018 2.08363 18 ft 12 kts 199°
2026-04-30 19:37 41.28934 2.08325 17 ft 13 kts 198°
2026-04-30 19:37 41.28842 2.08285 16 ft 14 kts 198°
2026-04-30 19:38 41.28744 2.08242 16 ft 15 kts 198°
2026-04-30 19:38 41.28669 2.08162 17 ft 14 kts 242°
2026-04-30 19:38 41.28626 2.08043 19 ft 15 kts 246°
2026-04-30 19:38 41.28584 2.07917 16 ft 15 kts 245°
2026-04-30 19:39 41.28541 2.07790 16 ft 15 kts 245°
2026-04-30 19:39 41.28498 2.07663 16 ft 15 kts 245°
2026-04-30 19:39 41.28454 2.07534 18 ft 15 kts 245°
2026-04-30 19:39 41.28388 2.07456 17 ft 13 kts 200°
2026-04-30 19:40 41.28326 2.07426 16 ft 9 kts 200°
2026-04-30 19:40 41.28266 2.07409 18 ft 8 kts 167°
2026-04-30 19:40 41.28241 2.07453 19 ft 7 kts 96°
2026-04-30 19:40 41.28258 2.07515 20 ft 8 kts 66°
2026-04-30 19:41 41.28350 2.07790 19 ft 69 kts 65°
2026-04-30 19:41 41.28644 2.08647 21 ft 132 kts 65°
2026-04-30 19:41 41.29049 2.09861 458 ft 144 kts 67°
2026-04-30 19:41 41.29250 2.11179 1061 ft 150 kts 95°
2026-04-30 19:42 41.29065 2.12592 1600 ft 164 kts 96°
2026-04-30 19:42 41.28921 2.14198 1933 ft 187 kts 94°
2026-04-30 19:42 41.28780 2.15988 2552 ft 197 kts 94°
2026-04-30 19:42 41.28636 2.17806 3353 ft 199 kts 95°
2026-04-30 19:43 41.28485 2.19630 4118 ft 206 kts 97°
2026-04-30 19:43 41.28225 2.21614 4575 ft 230 kts 101°
2026-04-30 19:43 41.27884 2.23801 5057 ft 252 kts 102°
2026-04-30 19:44 41.27109 2.28552 6612 ft 272 kts 102°
2026-04-30 19:44 41.26701 2.31039 7439 ft 277 kts 103°
2026-04-30 19:44 41.26288 2.33560 8302 ft 282 kts 103°
2026-04-30 19:44 41.25871 2.36135 9145 ft 288 kts 103°
2026-04-30 19:45 41.25449 2.38759 9980 ft 294 kts 103°
2026-04-30 19:45 41.25012 2.41474 10512 ft 310 kts 103°
2026-04-30 19:45 41.24544 2.44380 10868 ft 330 kts 102°
2026-04-30 19:45 41.24056 2.47406 11514 ft 339 kts 103°
2026-04-30 19:46 41.23556 2.50501 12215 ft 346 kts 103°
2026-04-30 19:46 41.23045 2.53646 12977 ft 351 kts 103°
2026-04-30 19:46 41.22525 2.56839 13732 ft 355 kts 102°
2026-04-30 19:46 41.21999 2.60068 14411 ft 360 kts 103°
2026-04-30 19:47 41.21465 2.63338 15037 ft 365 kts 103°
2026-04-30 19:47 41.21107 2.65530 15506 ft 367 kts 103°
2026-04-30 19:47 41.20387 2.69936 16413 ft 370 kts 103°
2026-04-30 19:47 41.19839 2.73296 17077 ft 374 kts 103°
2026-04-30 19:48 41.19285 2.76686 17738 ft 378 kts 103°
2026-04-30 19:48 41.18723 2.80105 18416 ft 381 kts 103°
2026-04-30 19:48 41.18153 2.83565 18952 ft 385 kts 103°
2026-04-30 19:48 41.17576 2.87052 19520 ft 389 kts 103°
2026-04-30 19:49 41.16991 2.90572 20074 ft 393 kts 103°
2026-04-30 19:49 41.15803 2.97725 21175 ft 401 kts 103°
2026-04-30 19:49 41.15199 3.01355 21714 ft 405 kts 103°
2026-04-30 19:50 41.14589 3.05022 22254 ft 409 kts 103°
2026-04-30 19:50 41.13972 3.08722 22800 ft 413 kts 103°
2026-04-30 19:50 41.13349 3.12456 23338 ft 416 kts 103°
2026-04-30 19:50 41.12719 3.16220 23828 ft 420 kts 103°
2026-04-30 19:51 41.12080 3.20017 24252 ft 424 kts 103°
2026-04-30 19:51 41.11441 3.23800 24667 ft 428 kts 103°
2026-04-30 19:51 41.10786 3.27665 25077 ft 431 kts 103°
2026-04-30 19:51 41.10123 3.31561 25482 ft 435 kts 103°
2026-04-30 19:52 41.09457 3.35488 25881 ft 438 kts 103°
2026-04-30 19:52 41.08785 3.39450 26273 ft 442 kts 104°
2026-04-30 19:52 41.08109 3.43437 26667 ft 445 kts 104°
2026-04-30 19:52 41.07425 3.47459 27019 ft 449 kts 104°
2026-04-30 19:53 41.06730 3.51507 27394 ft 452 kts 104°
2026-04-30 19:53 41.06025 3.55583 27777 ft 455 kts 104°
2026-04-30 19:53 41.05303 3.59683 28168 ft 458 kts 104°
2026-04-30 19:53 41.04569 3.63797 28552 ft 461 kts 105°
2026-04-30 19:54 41.03832 3.67894 28923 ft 464 kts 105°
2026-04-30 19:54 41.03079 3.72061 29292 ft 467 kts 105°
2026-04-30 19:54 41.02319 3.76255 29654 ft 470 kts 105°
2026-04-30 19:54 41.01557 3.80476 30026 ft 473 kts 105°
2026-04-30 19:55 41.00793 3.84725 30313 ft 476 kts 105°
2026-04-30 19:55 41.00025 3.89002 30605 ft 479 kts 105°
2026-04-30 19:55 40.99251 3.93301 30912 ft 481 kts 105°
2026-04-30 19:55 40.98470 3.97615 31214 ft 483 kts 105°
2026-04-30 19:56 40.97683 4.01943 31520 ft 485 kts 105°
2026-04-30 19:56 40.96889 4.06287 31847 ft 486 kts 105°
2026-04-30 19:56 40.96095 4.10619 32286 ft 484 kts 105°
2026-04-30 19:56 40.95301 4.14936 32719 ft 483 kts 105°
2026-04-30 19:57 40.94508 4.19243 33147 ft 481 kts 105°
2026-04-30 19:57 40.93716 4.23551 33532 ft 482 kts 105°
2026-04-30 19:57 40.92924 4.27859 33913 ft 481 kts 105°
2026-04-30 19:57 40.92132 4.32159 34298 ft 480 kts 105°
2026-04-30 19:58 40.91338 4.36455 34644 ft 480 kts 105°
2026-04-30 19:58 40.90543 4.40732 34991 ft 479 kts 105°
2026-04-30 19:58 40.89747 4.45006 35319 ft 478 kts 105°
2026-04-30 19:58 40.88950 4.49272 35636 ft 477 kts 105°
2026-04-30 19:59 40.88164 4.53473 35944 ft 477 kts 105°
2026-04-30 19:59 40.87366 4.57728 36083 ft 476 kts 105°
2026-04-30 20:00 40.85342 4.70445 36108 ft 471 kts 97°
2026-04-30 20:00 40.84560 4.79031 36111 ft 471 kts 97°
2026-04-30 20:01 40.83367 4.91907 36108 ft 470 kts 97°
2026-04-30 20:01 40.82563 5.00479 36103 ft 471 kts 97°
2026-04-30 20:02 40.81326 5.13358 36099 ft 472 kts 98°
2026-04-30 20:03 40.80094 5.26195 36088 ft 472 kts 98°
2026-04-30 20:03 40.79262 5.34783 36100 ft 472 kts 97°
2026-04-30 20:04 40.78426 5.43377 36093 ft 472 kts 97°
2026-04-30 20:05 40.77151 5.56276 36083 ft 472 kts 98°
2026-04-30 20:05 40.75857 5.69168 36096 ft 472 kts 98°
2026-04-30 20:06 40.74995 5.77763 36095 ft 473 kts 98°
2026-04-30 20:06 40.74120 5.86364 36094 ft 473 kts 98°
2026-04-30 20:07 40.73235 5.94910 36094 ft 473 kts 98°
2026-04-30 20:07 40.72340 6.03557 36410 ft 477 kts 98°
2026-04-30 20:08 40.71890 6.07891 36695 ft 477 kts 98°
2026-04-30 20:08 40.71437 6.12227 36953 ft 478 kts 98°
2026-04-30 20:08 40.70986 6.16574 37098 ft 479 kts 98°
2026-04-30 20:09 40.70075 6.25270 37107 ft 479 kts 98°
2026-04-30 20:09 40.68683 6.38296 37107 ft 478 kts 98°
2026-04-30 20:10 40.67280 6.51335 37111 ft 480 kts 98°
2026-04-30 20:11 40.65863 6.64433 37102 ft 481 kts 98°
2026-04-30 20:11 40.64917 6.73105 37103 ft 481 kts 98°
2026-04-30 20:12 40.63474 6.86197 37104 ft 481 kts 98°
2026-04-30 20:13 40.62495 6.94929 37096 ft 482 kts 98°
2026-04-30 20:13 40.61509 7.03656 37098 ft 482 kts 98°
2026-04-30 20:14 40.60519 7.12389 37092 ft 482 kts 98°
2026-04-30 20:14 40.59531 7.21065 37092 ft 482 kts 98°
2026-04-30 20:15 40.58697 7.28338 37099 ft 482 kts 98°
2026-04-30 20:15 40.57697 7.37065 37096 ft 482 kts 98°
2026-04-30 20:16 40.56716 7.45806 37097 ft 482 kts 94°
2026-04-30 20:16 40.56950 7.54587 37275 ft 482 kts 81°
2026-04-30 20:16 40.57340 7.58962 37537 ft 482 kts 81°
2026-04-30 20:17 40.57722 7.63347 37776 ft 483 kts 81°
2026-04-30 20:17 40.58095 7.67735 38020 ft 483 kts 81°
2026-04-30 20:17 40.58465 7.72133 38111 ft 483 kts 81°
2026-04-30 20:18 40.59206 7.80919 38112 ft 483 kts 81°
2026-04-30 20:18 40.59946 7.89703 38114 ft 483 kts 81°
2026-04-30 20:19 40.60676 7.98482 38123 ft 483 kts 81°
2026-04-30 20:19 40.61412 8.07292 38114 ft 485 kts 81°
2026-04-30 20:20 40.62146 8.16116 38133 ft 485 kts 81°
2026-04-30 20:20 40.62868 8.24954 38125 ft 486 kts 82°
2026-04-30 20:21 40.63582 8.33799 38101 ft 486 kts 81°
2026-04-30 20:21 40.64279 8.42603 38107 ft 487 kts 81°
2026-04-30 20:22 40.64979 8.51491 38114 ft 488 kts 81°
2026-04-30 20:22 40.65680 8.60378 38126 ft 488 kts 81°
2026-04-30 20:23 40.66368 8.69274 38132 ft 488 kts 81°
2026-04-30 20:23 40.67043 8.78191 38141 ft 489 kts 81°
2026-04-30 20:24 40.67718 8.87118 38140 ft 490 kts 81°
2026-04-30 20:24 40.68387 8.96069 38148 ft 491 kts 81°
2026-04-30 20:25 40.69381 9.09446 38182 ft 491 kts 81°
2026-04-30 20:26 40.70370 9.22923 38175 ft 492 kts 81°
2026-04-30 20:26 40.71340 9.36428 38179 ft 493 kts 81°
2026-04-30 20:27 40.72599 9.54463 38200 ft 494 kts 81°
2026-04-30 20:28 40.73844 9.72492 38191 ft 495 kts 81°
2026-04-30 20:30 40.75350 9.95167 38187 ft 496 kts 81°
2026-04-30 20:31 40.77117 10.22404 38199 ft 497 kts 81°
2026-04-30 20:32 40.78534 10.45082 38174 ft 498 kts 81°
2026-04-30 20:33 40.79361 10.58739 38186 ft 497 kts 81°
2026-04-30 20:34 40.80186 10.72402 38179 ft 498 kts 81°
2026-04-30 20:35 40.80988 10.86068 38172 ft 498 kts 81°
2026-04-30 20:35 40.81764 10.99747 38174 ft 498 kts 81°
2026-04-30 20:36 40.82275 11.08857 38184 ft 497 kts 82°
2026-04-30 20:36 40.82786 11.17966 37899 ft 499 kts 82°
2026-04-30 20:37 40.83039 11.22552 37275 ft 500 kts 82°
2026-04-30 20:37 40.83286 11.27113 36741 ft 497 kts 82°
2026-04-30 20:37 40.83530 11.31663 36197 ft 496 kts 82°
2026-04-30 20:37 40.83768 11.36147 35601 ft 495 kts 82°
2026-04-30 20:38 40.84008 11.40673 35035 ft 494 kts 82°
2026-04-30 20:38 40.84247 11.45189 34548 ft 491 kts 82°
2026-04-30 20:38 40.84482 11.49683 34023 ft 490 kts 82°
2026-04-30 20:39 40.84931 11.58590 33025 ft 482 kts 82°
2026-04-30 20:39 40.85149 11.62995 32532 ft 479 kts 82°
2026-04-30 20:39 40.85365 11.67368 32039 ft 475 kts 83°
2026-04-30 20:40 40.85793 11.76021 31092 ft 468 kts 83°
2026-04-30 20:40 40.86003 11.80290 30634 ft 464 kts 83°
2026-04-30 20:40 40.86211 11.84529 30171 ft 460 kts 83°
2026-04-30 20:41 40.86613 11.92884 29262 ft 450 kts 83°
2026-04-30 20:41 40.86806 11.96997 28835 ft 445 kts 83°
2026-04-30 20:41 40.86994 12.01068 28418 ft 441 kts 83°
2026-04-30 20:41 40.87181 12.05088 28025 ft 437 kts 83°
2026-04-30 20:42 40.87369 12.09089 27572 ft 435 kts 83°
2026-04-30 20:42 40.87550 12.13066 27153 ft 432 kts 83°
2026-04-30 20:42 40.87902 12.20915 26285 ft 427 kts 83°
2026-04-30 20:43 40.88075 12.24829 25837 ft 425 kts 83°
2026-04-30 20:43 40.88250 12.28728 25381 ft 424 kts 83°
2026-04-30 20:43 40.88424 12.32616 24926 ft 422 kts 82°
2026-04-30 20:44 40.88782 12.40335 23978 ft 420 kts 82°
2026-04-30 20:44 40.88961 12.44182 23473 ft 419 kts 82°
2026-04-30 20:44 40.89307 12.51836 22505 ft 414 kts 82°
2026-04-30 20:45 40.89636 12.59372 21581 ft 406 kts 82°
2026-04-30 20:45 40.89794 12.63059 21138 ft 397 kts 82°
2026-04-30 20:45 40.89947 12.66608 20700 ft 387 kts 82°
2026-04-30 20:46 40.90387 12.76900 19466 ft 363 kts 82°
2026-04-30 20:46 40.90530 12.80217 19064 ft 360 kts 82°
2026-04-30 20:47 40.90811 12.86791 18238 ft 356 kts 82°
2026-04-30 20:47 40.90946 12.90053 17828 ft 354 kts 82°
2026-04-30 20:48 40.90700 12.96535 17042 ft 357 kts 101°
2026-04-30 20:48 40.89842 12.99622 16682 ft 357 kts 113°
2026-04-30 20:48 40.88804 13.02594 16335 ft 355 kts 112°
2026-04-30 20:48 40.87785 13.05511 16040 ft 351 kts 113°
2026-04-30 20:49 40.86753 13.08419 15788 ft 348 kts 113°
2026-04-30 20:49 40.85721 13.11303 15540 ft 346 kts 113°
2026-04-30 20:49 40.84690 13.14169 15307 ft 345 kts 114°
2026-04-30 20:50 40.82639 13.19873 14690 ft 344 kts 114°
2026-04-30 20:50 40.81612 13.22729 14269 ft 345 kts 114°
2026-04-30 20:50 40.80580 13.25595 13829 ft 346 kts 114°
2026-04-30 20:50 40.79545 13.28468 13356 ft 347 kts 114°
2026-04-30 20:51 40.78514 13.31333 12846 ft 344 kts 114°
2026-04-30 20:51 40.76489 13.36955 11935 ft 335 kts 114°
2026-04-30 20:51 40.75494 13.39715 11488 ft 331 kts 114°
2026-04-30 20:52 40.74512 13.42440 11044 ft 327 kts 114°
2026-04-30 20:52 40.73537 13.45133 10606 ft 324 kts 114°
2026-04-30 20:52 40.71613 13.50425 9717 ft 316 kts 114°
2026-04-30 20:53 40.70670 13.53017 9279 ft 311 kts 114°
2026-04-30 20:53 40.69742 13.55570 8838 ft 306 kts 114°
2026-04-30 20:53 40.68834 13.58066 8405 ft 299 kts 114°
2026-04-30 20:54 40.67077 13.62894 7546 ft 286 kts 114°
2026-04-30 20:54 40.66232 13.65212 7136 ft 282 kts 112°
2026-04-30 20:54 40.65388 13.67520 6722 ft 278 kts 113°
2026-04-30 20:55 40.63740 13.72034 5857 ft 269 kts 113°
2026-04-30 20:55 40.62955 13.74252 5423 ft 263 kts 107°
2026-04-30 20:55 40.62554 13.76551 5000 ft 253 kts 90°
2026-04-30 20:56 40.63156 13.80893 4131 ft 236 kts 62°
2026-04-30 20:56 40.63997 13.82659 4000 ft 218 kts 52°
2026-04-30 20:56 40.65872 13.85850 4022 ft 237 kts 46°
2026-04-30 20:57 40.66601 13.86952 4012 ft 245 kts 50°
2026-04-30 20:57 40.67960 13.89398 4008 ft 248 kts 53°
2026-04-30 20:57 40.68939 13.91270 4010 ft 249 kts 54°
2026-04-30 20:58 40.70831 13.94871 4001 ft 226 kts 54°
2026-04-30 20:58 40.71702 13.96525 3990 ft 217 kts 53°
2026-04-30 20:58 40.72557 13.98150 4001 ft 215 kts 53°
2026-04-30 20:58 40.73410 13.99774 4007 ft 215 kts 54°
2026-04-30 20:59 40.74822 14.02461 4012 ft 212 kts 54°
2026-04-30 20:59 40.75882 14.04482 4011 ft 195 kts 53°
2026-04-30 21:00 40.77414 14.07402 3943 ft 188 kts 54°
2026-04-30 21:00 40.78809 14.10065 3880 ft 164 kts 53°
2026-04-30 21:01 40.79843 14.12039 3625 ft 153 kts 54°
2026-04-30 21:01 40.80634 14.13550 3350 ft 149 kts 54°
2026-04-30 21:01 40.81805 14.15788 2889 ft 146 kts 53°
2026-04-30 21:02 40.82190 14.16526 2740 ft 143 kts 54°
2026-04-30 21:02 40.82744 14.17586 2525 ft 138 kts 55°
2026-04-30 21:02 40.83281 14.18614 2319 ft 134 kts 54°
2026-04-30 21:02 40.83803 14.19614 2098 ft 129 kts 55°
2026-04-30 21:03 40.84296 14.20558 1901 ft 125 kts 54°
2026-04-30 21:03 40.84790 14.21503 1704 ft 124 kts 53°
2026-04-30 21:03 40.85293 14.22467 1495 ft 128 kts 55°
2026-04-30 21:03 40.85793 14.23425 1301 ft 126 kts 54°
2026-04-30 21:04 40.86298 14.24368 1122 ft 128 kts 54°
2026-04-30 21:04 40.86785 14.25311 903 ft 126 kts 56°
2026-04-30 21:04 40.87732 14.27249 506 ft 124 kts 55°
2026-04-30 21:05 40.88191 14.28212 313 ft 124 kts 56°
2026-04-30 21:05 40.88597 14.29062 268 ft 89 kts 58°
2026-04-30 21:05 40.88833 14.29564 255 ft 44 kts 58°
2026-04-30 21:05 40.88995 14.29909 244 ft 37 kts 57°
2026-04-30 21:06 40.89074 14.30070 238 ft 11 kts 64°
2026-04-30 21:06 40.89046 14.30133 238 ft 0 kts 150°
2026-04-30 21:06 40.89035 14.30141 238 ft 3 kts 150°
2026-04-30 21:07 40.89017 14.30154 238 ft 3 kts 150°
2026-04-30 21:07 40.88996 14.30170 238 ft 4 kts 150°
2026-04-30 21:07 40.88968 14.30180 238 ft 5 kts 186°
2026-04-30 21:07 40.88924 14.30127 241 ft 10 kts 232°
2026-04-30 21:08 40.88885 14.30060 243 ft 8 kts 232°
2026-04-30 21:08 40.88855 14.30007 245 ft 6 kts 232°
2026-04-30 21:08 40.88832 14.29969 246 ft 4 kts 232°
2026-04-30 21:08 40.88817 14.29943 247 ft 3 kts 232°
2026-04-30 21:09 40.88807 14.29926 248 ft 3 kts 232°
2026-04-30 21:09 40.88786 14.29890 249 ft 9 kts 232°
2026-04-30 21:09 40.88751 14.29829 251 ft 8 kts 234°
2026-04-30 21:09 40.88723 14.29778 252 ft 6 kts 234°
2026-04-30 21:10 40.88700 14.29737 254 ft 5 kts 233°
2026-04-30 21:10 40.88675 14.29693 255 ft 15 kts 233°
2026-04-30 21:10 40.88595 14.29558 259 ft 15 kts 232°
2026-04-30 21:10 40.88536 14.29454 262 ft 13 kts 233°
2026-04-30 21:11 40.88483 14.29364 264 ft 12 kts 232°
2026-04-30 21:11 40.88436 14.29285 266 ft 10 kts 232°
2026-04-30 21:11 40.88396 14.29215 268 ft 9 kts 234°
2026-04-30 21:11 40.88354 14.29139 270 ft 10 kts 233°
2026-04-30 21:12 40.88314 14.29070 272 ft 9 kts 233°
2026-04-30 21:12 40.88279 14.29008 274 ft 9 kts 232°
2026-04-30 21:12 40.88223 14.28915 276 ft 14 kts 232°
2026-04-30 21:12 40.88169 14.28821 278 ft 12 kts 233°
2026-04-30 21:13 40.88120 14.28736 280 ft 11 kts 233°
2026-04-30 21:13 40.88077 14.28661 282 ft 10 kts 232°
2026-04-30 21:13 40.88039 14.28595 284 ft 9 kts 232°
2026-04-30 21:13 40.88004 14.28537 285 ft 7 kts 229°
2026-04-30 21:14 40.87969 14.28495 286 ft 6 kts 219°
2026-04-30 21:14 40.87941 14.28456 287 ft 5 kts 241°
2026-04-30 21:14 40.87937 14.28412 288 ft 5 kts 274°
2026-04-30 21:14 40.87941 14.28372 294 ft 4 kts 276°
2026-04-30 21:15 40.87926 14.28354 292 ft 2 kts 205°
2026-04-30 21:15 40.87912 14.28350 292 ft 2 kts 192°
2026-04-30 21:15 40.87900 14.28347 291 ft 2 kts 189°
2026-04-30 21:15 40.87885 14.28344 290 ft 2 kts 187°
2026-04-30 21:16 40.87874 14.28342 290 ft 0 kts 187°
2026-04-30 21:20 40.87875 14.28342 290 ft 0 kts 187°